Overview Statistics Trail Chart Weather Telemetry Raw packets
 

This is the latest recevied weather packets stored in our database for station/object VE8SKI. If no packets are shown the sender has not sent any weather packets the latest 10 day(s).

<< 69 70 71 72 73 74 75 >>
Time Temp. Humidity Pressure Rain* Wind** Luminosity Snow
1777617365 5° C 74% 1006.5 hPa 0 mm 0.45 m/s, 7° - -
1777617066 5° C 74% 1006.4 hPa 0 mm 0 m/s - -
1777616766 5° C 74% 1006.2 hPa 0 mm 0.89 m/s, 315° - -
1777616464 5° C 74% 1006.2 hPa 0 mm 0.89 m/s, 242° - -
1777616164 5° C 74% 1006.3 hPa 0 mm 1.79 m/s, 311° - -
1777615865 5° C 73% 1006.3 hPa 0 mm 1.79 m/s, 281° - -
1777615565 5° C 73% 1006.4 hPa 0 mm 1.34 m/s, 294° - -
1777615265 5° C 72% 1006.4 hPa 0 mm 2.24 m/s, 0° - -
1777614966 5.56° C 70% 1006.5 hPa 0 mm 1.34 m/s, 69° - -
1777614664 6.11° C 68% 1006.7 hPa 0 mm 2.24 m/s, 0° - -
1777614364 6.67° C 66% 1006.6 hPa 0 mm 1.79 m/s, 0° - -
1777614065 6.67° C 65% 1006.4 hPa 0 mm 1.79 m/s, 359° - -
1777613765 6.67° C 64% 1006.4 hPa 0 mm 0.45 m/s, 288° - -
1777613465 7.22° C 63% 1006.4 hPa 0 mm 1.79 m/s, 285° - -
1777613166 7.22° C 61% 1006.5 hPa 0 mm 2.24 m/s, 278° - -
1777612864 7.22° C 60% 1006.4 hPa 0 mm 2.68 m/s, 288° - -
1777612564 7.22° C 60% 1006.4 hPa 0 mm 3.13 m/s, 267° - -
1777612264 7.78° C 60% 1006.4 hPa 0 mm 3.13 m/s, 238° - -
1777611965 7.22° C 60% 1006.5 hPa 0 mm 2.24 m/s, 194° - -
1777611665 7.22° C 60% 1006.4 hPa 0 mm 2.24 m/s, 290° - -
1777611366 7.22° C 60% 1006.3 hPa 0 mm 2.68 m/s, 228° - -
1777611064 7.78° C 60% 1006.4 hPa 0 mm 1.79 m/s, 229° - -
1777610764 7.78° C 60% 1006.4 hPa 0 mm 1.79 m/s, 325° - -
1777610465 7.22° C 60% 1006.3 hPa 0 mm 2.24 m/s, 240° - -
1777610165 7.78° C 60% 1006.4 hPa 0 mm 1.34 m/s, 204° - -

* Rain latest hour (hover to see other rain measurements)
** Current wind speed in m/s (hover to see current wind gust speed)